Charlottetown, Prince Edward Island

8:32 AM AST on November 18, 2017 (GMT -0400)
Charlottetown

Weather History for CYYG - February, 2013

Change the Weather History Date:

Thursday, February 14, 2013

  Actual Average Record
Temperature  
Mean Temperature 28 °F -  
Max Temperature 29 °F 29 °F 45 °F (2014)
Min Temperature 26 °F 14 °F -14 °F (2003)
Degree Days  
Heating Degree Days 38    
Moisture  
Dew Point 26 °F    
Average Humidity 91    
Maximum Humidity 100    
Minimum Humidity 76    
Precipitation  
Precipitation 0.00 in 0.12 in - ()
Sea Level Pressure  
Sea Level Pressure 29.80 in    
Wind  
Wind Speed 4 mph ()    
Max Wind Speed 9 mph    
Max Gust Speed -    
Visibility 15.0 miles    
Events Snow    
Averages and records for this station are not official NWS values.
T = Trace of Precipitation, MM = Missing Value Source: Averaged Metar Reports

Daily Weather History Graph

Daily Weather History Graph

Search for Another Location

Airport or City:

Trip Planner

Search our weather history database for the weather conditions in past years. The results will help you decide how hot, cold, wet, or windy it might be!

Date:

Astronomy

Feb. 14, 2013 Rise Set
Actual Time 7:16 AM AST 5:37 PM AST
Civil Twilight 6:45 AM AST 6:08 PM AST
Nautical Twilight 6:10 AM AST 6:43 PM AST
Astronomical Twilight 5:36 AM AST 7:18 PM AST
Moon 8:57 AM AST (2/14) 10:56 PM AST (2/14)
Length of Visible Light 11h 22m
Length of Day
10h 20m
Waxing Crescent, 21% of the Moon is Illuminated
Feb 14
Waxing Crescent
Feb 17
First Quarter
Feb 25
Full
Mar 4
Last Quarter
Mar 11
New

Hourly Weather History & Observations

Time (AST) Temp. Windchill Dew Point Humidity Pressure Visibility Wind Dir Wind Speed Gust Speed Precip Events Conditions
12:00 AM 30.2 °F 26.7 °F 28.4 °F 93% 29.75 in 15.0 mi West 3.5 mph - N/A   Overcast
1:00 AM 30.2 °F 26.7 °F 28.4 °F 93% 29.75 in 15.0 mi West 3.5 mph - N/A   Overcast
2:00 AM 29 °F - 28 °F 92% 29.75 in 15 mi NW 2.3 mph - -   Overcast
2:00 AM 28.4 °F 24.6 °F 26.6 °F 93% 29.75 in 15.0 mi WNW 3.5 mph - N/A   Overcast
3:00 AM 28.4 °F - 26.6 °F 93% 29.75 in 15.0 mi WNW 2.3 mph - N/A   Overcast
4:00 AM 28.4 °F - 26.6 °F 93% 29.74 in 15.0 mi NNW 2.3 mph - N/A   Overcast
5:00 AM 28.4 °F 22.2 °F 26.6 °F 93% 29.71 in 15.0 mi North 5.8 mph - N/A   Overcast
6:00 AM 28.4 °F 23.3 °F 26.6 °F 93% 29.77 in 15.0 mi SW 4.6 mph - N/A   Overcast
7:00 AM 26.6 °F - 26.6 °F 100% 29.77 in 15.0 mi Calm Calm - N/A Snow Light Snow Showers
8:00 AM 27 °F - 26 °F 95% 29.76 in 15 mi NNE 3.5 mph - - Snow Light Snow Showers
8:00 AM 26.6 °F 22.6 °F 26.6 °F 100% 29.76 in 15.0 mi NNE 3.5 mph - N/A Snow Light Snow Showers
9:00 AM 28.4 °F - 24.8 °F 86% 29.77 in 15.0 mi Calm Calm - N/A Snow Light Snow Showers
10:00 AM 28.4 °F 23.3 °F 24.8 °F 86% 29.76 in 15.0 mi North 4.6 mph - N/A   Overcast
11:00 AM 28.4 °F 23.3 °F 24.8 °F 86% 29.76 in 15.0 mi North 4.6 mph - N/A   Overcast
12:00 PM 28.4 °F 22.2 °F 24.8 °F 86% 29.76 in 15.0 mi North 5.8 mph - N/A   Overcast
1:00 PM 28.4 °F 22.2 °F 24.8 °F 86% 29.76 in 15.0 mi NNW 5.8 mph - N/A   Overcast
2:00 PM 29 °F - 24 °F 76% 29.76 in 15 mi North 8.1 mph - -   Partly Cloudy
2:00 PM 28.4 °F 21.2 °F 24.8 °F 86% 29.75 in 15.0 mi North 6.9 mph - N/A   Overcast
3:00 PM 28.4 °F 20.4 °F 24.8 °F 86% 29.78 in 15.0 mi NNW 8.1 mph - N/A   Overcast
4:00 PM 28.4 °F 19.7 °F 24.8 °F 86% 29.81 in 15.0 mi NW 9.2 mph - N/A   Overcast
5:00 PM 26.6 °F 19.1 °F 23.0 °F 86% 29.82 in 15.0 mi WNW 6.9 mph - N/A   Overcast
6:00 PM 26.6 °F 18.2 °F 24.8 °F 93% 29.85 in 15.0 mi NW 8.1 mph - N/A   Overcast
7:00 PM 26.6 °F 20.0 °F 24.8 °F 93% 29.87 in 15.0 mi NW 5.8 mph - N/A   Overcast
8:00 PM 26 °F - 24 °F 91% 29.90 in 15 mi NW 4.6 mph - -   Mostly Cloudy
8:00 PM 26.6 °F 22.6 °F 24.8 °F 93% 29.89 in 15.0 mi NW 3.5 mph - N/A   Mostly Cloudy
9:00 PM 26.6 °F 22.6 °F 24.8 °F 93% 29.91 in 15.0 mi NW 3.5 mph - N/A   Overcast
10:00 PM 26.6 °F 20.0 °F 24.8 °F 93% 29.93 in 15.0 mi WNW 5.8 mph - N/A   Overcast
11:00 PM 26.6 °F 21.2 °F 24.8 °F 93% 29.94 in 15.0 mi West 4.6 mph - N/A   Overcast